When you browse on this site, cookies collect data to enhance your experience and personalize the content and advertising you see.
Visit our Privacy Policy to learn more. By continuing to use the site, you agree to this use of cookies and data.
  • In United Kingdom
  • List of Countries
  • For 7 days
  • Water Temperature
  • Weather Map
  • Weather Widgets
  • user-avatar
    Login

    Hourly Weather Pernik

    Today, 14 October, Monday

    Time Temperature Precipitation Wind Pressure Humidity
    00:00 +13°C° 0 mm 0 mps 696 mmHg 69%
    01:00 +12°C° 0 mm 0 mps 696 mmHg 71%
    02:00 +12°C° 0 mm 0 mps 696 mmHg 73%
    03:00 +12°C° 0 mm 0 mps 695 mmHg 74%
    04:00 +11°C° 0 mm 0 mps 695 mmHg 76%
    05:00 +11°C° 0 mm 0 mps 695 mmHg 77%
    06:00 +12°C° 0 mm 0 mps 695 mmHg 73%
    07:00 +13°C° 0 mm 0 mps 695 mmHg 70%
    08:00 +14°C° 0 mm 0 mps 696 mmHg 64%
    09:00 +16°C° 0 mm 0 mps 696 mmHg 57%
    10:00 +18°C° 0 mm 0 mps 696 mmHg 50%
    11:00 +23°C° 0 mm 1 mps 696 mmHg 43%
    12:00 +24°C° 0 mm 1 mps 696 mmHg 40%
    13:00 +25°C° 0 mm 1 mps 696 mmHg 36%
    14:00 +26°C° 0 mm 1 mps 696 mmHg 32%
    15:00 +25°C° 0 mm 1 mps 696 mmHg 35%
    16:00 +24°C° 0 mm 1 mps 695 mmHg 38%
    17:00 +23°C° 0 mm 1 mps 694 mmHg 42%
    18:00 +21°C° 0 mm 1 mps 694 mmHg 45%
    19:00 +19°C° 0 mm 1 mps 694 mmHg 49%
    20:00 +16°C° 0 mm 1 mps 695 mmHg 53%
    21:00 +16°C° 0 mm 1 mps 694 mmHg 54%
    22:00 +15°C° 0 mm 1 mps 694 mmHg 56%
    23:00 +13°C° 0 mm 0 mps 694 mmHg 58%

    Tomorrow, 15 October, Tuesday

    Time Temperature Precipitation Wind Pressure Humidity
    00:00 +13°C° 0 mm 0 mps 694 mmHg 59%
    01:00 +12°C° 0 mm 0 mps 694 mmHg 61%
    02:00 +12°C° 0 mm 0 mps 693 mmHg 62%
    03:00 +12°C° 0 mm 0 mps 693 mmHg 64%
    04:00 +11°C° 0 mm 0 mps 693 mmHg 65%
    05:00 +11°C° 0 mm 0 mps 692 mmHg 66%
    06:00 +12°C° 0 mm 0 mps 693 mmHg 64%
    07:00 +13°C° 0 mm 0 mps 693 mmHg 61%
    08:00 +13°C° 0 mm 0 mps 693 mmHg 59%
    09:00 +18°C° 0 mm 1 mps 694 mmHg 52%
    10:00 +20°C° 0 mm 1 mps 694 mmHg 45%
    11:00 +23°C° 0 mm 1 mps 694 mmHg 37%
    12:00 +24°C° 0 mm 1 mps 694 mmHg 34%
    13:00 +25°C° 0 mm 1 mps 694 mmHg 30%
    14:00 +26°C° 0 mm 1 mps 693 mmHg 26%
    15:00 +25°C° 0 mm 1 mps 693 mmHg 29%
    16:00 +24°C° 0 mm 1 mps 692 mmHg 32%
    17:00 +23°C° 0 mm 1 mps 692 mmHg 34%
    18:00 +21°C° 0 mm 1 mps 692 mmHg 38%
    19:00 +19°C° 0 mm 1 mps 692 mmHg 41%
    20:00 +16°C° 0 mm 1 mps 692 mmHg 44%
    21:00 +15°C° 0 mm 1 mps 692 mmHg 46%
    22:00 +15°C° 0 mm 1 mps 692 mmHg 48%
    23:00 +13°C° 0 mm 0 mps 692 mmHg 50%

    Day after tomorrow, 16 October, Wednesday

    Time Temperature Precipitation Wind Pressure Humidity
    00:00 +12°C° 0 mm 0 mps 692 mmHg 51%
    01:00 +12°C° 0 mm 0 mps 692 mmHg 52%
    02:00 +12°C° 0 mm 0 mps 692 mmHg 53%
    03:00 +11°C° 0 mm 0 mps 691 mmHg 54%
    04:00 +11°C° 0 mm 0 mps 691 mmHg 55%
    05:00 +11°C° 0 mm 0 mps 691 mmHg 57%
    06:00 +11°C° 0 mm 0 mps 691 mmHg 55%
    07:00 +12°C° 0 mm 0 mps 692 mmHg 54%
    08:00 +13°C° 0 mm 0 mps 692 mmHg 52%
    09:00 +16°C° 0 mm 0 mps 692 mmHg 46%
    10:00 +18°C° 0 mm 0 mps 693 mmHg 39%
    11:00 +21°C° 0 mm 0 mps 693 mmHg 33%
    12:00 +22°C° 0 mm 0 mps 693 mmHg 30%
    13:00 +25°C° 0 mm 1 mps 693 mmHg 27%
    14:00 +26°C° 0 mm 1 mps 693 mmHg 25%
    15:00 +24°C° 0 mm 1 mps 693 mmHg 28%
    16:00 +23°C° 0 mm 1 mps 692 mmHg 31%
    17:00 +22°C° 0 mm 1 mps 692 mmHg 35%
    18:00 +20°C° 0 mm 1 mps 692 mmHg 39%
    19:00 +18°C° 0 mm 1 mps 692 mmHg 43%
    20:00 +16°C° 0 mm 1 mps 692 mmHg 47%
    21:00 +15°C° 0 mm 1 mps 692 mmHg 49%
    22:00 +15°C° 0 mm 1 mps 692 mmHg 51%
    23:00 +14°C° 0 mm 1 mps 692 mmHg 53%

    17 October, Thursday

    Time Temperature Precipitation Wind Pressure Humidity
    00:00 +13°C° 0 mm 0 mps 692 mmHg 54%
    01:00 +12°C° 0 mm 0 mps 692 mmHg 56%
    02:00 +12°C° 0 mm 0 mps 692 mmHg 57%
    03:00 +11°C° 0 mm 0 mps 692 mmHg 58%
    04:00 +11°C° 0 mm 0 mps 692 mmHg 59%
    05:00 +11°C° 0 mm 0 mps 692 mmHg 60%
    06:00 +11°C° 0 mm 0 mps 692 mmHg 59%
    07:00 +12°C° 0 mm 0 mps 692 mmHg 57%
    08:00 +13°C° 0 mm 0 mps 693 mmHg 55%
    09:00 +15°C° 0 mm 0 mps 693 mmHg 49%
    10:00 +18°C° 0 mm 0 mps 694 mmHg 42%
    11:00 +20°C° 0 mm 0 mps 694 mmHg 35%
    12:00 +23°C° 0 mm 1 mps 694 mmHg 33%
    13:00 +24°C° 0 mm 1 mps 694 mmHg 30%
    14:00 +25°C° 0 mm 1 mps 693 mmHg 27%
    15:00 +24°C° 0 mm 1 mps 693 mmHg 30%
    16:00 +23°C° 0 mm 1 mps 693 mmHg 34%
    17:00 +20°C° 0 mm 0 mps 693 mmHg 37%
    18:00 +20°C° 0 mm 1 mps 693 mmHg 41%
    19:00 +18°C° 0 mm 1 mps 693 mmHg 45%
    20:00 +15°C° 0 mm 1 mps 693 mmHg 49%
    21:00 +15°C° 0 mm 1 mps 693 mmHg 51%
    22:00 +14°C° 0 mm 1 mps 693 mmHg 53%
    23:00 +13°C° 0 mm 0 mps 693 mmHg 55%

    18 October, Friday

    Time Temperature Precipitation Wind Pressure Humidity
    00:00 +12°C° 0 mm 0 mps 693 mmHg 56%
    01:00 +12°C° 0 mm 0 mps 692 mmHg 57%
    02:00 +12°C° 0 mm 0 mps 692 mmHg 58%
    03:00 +11°C° 0 mm 0 mps 692 mmHg 59%
    04:00 +11°C° 0 mm 0 mps 692 mmHg 60%
    05:00 +11°C° 0 mm 0 mps 693 mmHg 61%
    06:00 +12°C° 0 mm 0 mps 693 mmHg 59%
    07:00 +12°C° 0 mm 0 mps 693 mmHg 58%
    08:00 +13°C° 0 mm 0 mps 693 mmHg 56%
    09:00 +15°C° 0 mm 0 mps 694 mmHg 49%
    10:00 +18°C° 0 mm 0 mps 694 mmHg 42%
    11:00 +20°C° 0 mm 0 mps 694 mmHg 35%
    12:00 +23°C° 0 mm 1 mps 694 mmHg 33%
    13:00 +24°C° 0 mm 1 mps 694 mmHg 31%
    14:00 +25°C° 0 mm 1 mps 694 mmHg 28%
    15:00 +24°C° 0 mm 1 mps 693 mmHg 32%
    16:00 +22°C° 0 mm 1 mps 693 mmHg 35%
    17:00 +21°C° 0 mm 1 mps 692 mmHg 39%
    18:00 +20°C° 0 mm 1 mps 692 mmHg 43%
    19:00 +18°C° 0 mm 1 mps 692 mmHg 47%
    20:00 +15°C° 0 mm 1 mps 692 mmHg 51%
    21:00 +15°C° 0 mm 1 mps 692 mmHg 53%
    22:00 +14°C° 0 mm 1 mps 692 mmHg 55%
    23:00 +14°C° 0 mm 1 mps 692 mmHg 57%

    19 October, Saturday

    Time Temperature Precipitation Wind Pressure Humidity
    00:00 +12°C° 0 mm 0 mps 692 mmHg 58%
    01:00 +12°C° 0 mm 0 mps 692 mmHg 60%
    02:00 +12°C° 0 mm 0 mps 692 mmHg 61%
    03:00 +11°C° 0 mm 0 mps 692 mmHg 62%
    04:00 +11°C° 0 mm 0 mps 692 mmHg 62%
    05:00 +11°C° 0 mm 0 mps 691 mmHg 63%
    06:00 +11°C° 0 mm 0 mps 692 mmHg 61%
    07:00 +12°C° 0 mm 0 mps 692 mmHg 60%
    08:00 +13°C° 0 mm 0 mps 692 mmHg 58%
    09:00 +15°C° 0 mm 0 mps 693 mmHg 51%
    10:00 +20°C° 0 mm 1 mps 693 mmHg 45%
    11:00 +22°C° 0 mm 1 mps 693 mmHg 38%
    12:00 +23°C° 0 mm 1 mps 693 mmHg 36%
    13:00 +24°C° 0 mm 1 mps 693 mmHg 34%
    14:00 +25°C° 0 mm 1 mps 693 mmHg 31%
    15:00 +24°C° 0 mm 1 mps 692 mmHg 34%
    16:00 +23°C° 0 mm 1 mps 692 mmHg 38%
    17:00 +22°C° 0 mm 1 mps 692 mmHg 41%
    18:00 +20°C° 0 mm 1 mps 692 mmHg 45%
    19:00 +18°C° 0 mm 1 mps 691 mmHg 49%
    20:00 +16°C° 0 mm 1 mps 691 mmHg 53%
    21:00 +15°C° 0 mm 1 mps 691 mmHg 55%
    22:00 +14°C° 0 mm 1 mps 692 mmHg 57%
    23:00 +14°C° 0 mm 1 mps 692 mmHg 59%
    Show more